Home   Weather   Arosa   Past weeks
Flag for Switzerland

Past Weather in Arosa, Graubünden, Switzerland — Yesterday and Last 2 Weeks

Now
66 °F

Haze.


Feels Like: 66 °F
Forecast: 81 / 56 °F
Wind: No wind

Location: Chur

Current Time: Aug 7, 2020 at 12:42:05 am

Latest Report: Aug 6, 2020 at 11:00 pm


Visibility: 7 mi

Pressure: 30.12 "Hg

Humidity: 81%

Dew Point: 60 °F

Location of ArosaLocation

Past Weather in Arosa — Graph

°F

Arosa Temperature Yesterday

Maximum temperature yesterday: 80 °F (at 5:00 pm)
Minimum temperature yesterday: 56 °F (at 6:00 am)
Average temperature yesterday: 68 °F

High & Low Weather Summary for the Past Weeks

 TemperatureHumidityPressure
High93 °F (Jul 28, 2:00 pm)96% (Aug 3, 4:00 am)30.14 "Hg (Aug 3, 4:00 am)
Low50 °F (Aug 5, 7:00 am)30% (Jul 28, 2:00 pm)29.76 "Hg (Jul 28, 2:00 pm)
Average69 °F70%29.99 "Hg
* Reported Jul 22 11:00 pm — Aug 6 11:00 pm, Arosa. Weather by CustomWeather, © 2020

Note: Actual official high and low records may vary slightly from our data, if they occured in-between our weather recording intervals... More about our weather records

Arosa Weather History for the Previous 24 Hours

Scroll right to see more
 ConditionsComfort  
Time TempWeatherWind HumidityBarometerVisibility
11:00 pm
Thu, Aug 6
66 °FHaze.No wind81%30.12 "Hg7 mi
10:00 pm70 °FMild.3 mph69%30.09 "HgN/A
9:00 pm73 °FMild.8 mph63%30.05 "HgN/A
8:00 pm74 °FHaze.9 mph60%30.02 "Hg7 mi
7:00 pm77 °FMild.13 mph53%29.99 "HgN/A
6:00 pm79 °FWarm.17 mph47%29.98 "HgN/A
5:00 pm80 °FHaze.16 mph48%29.97 "Hg6 mi
4:00 pm79 °FWarm.14 mph47%29.98 "HgN/A
3:00 pm78 °FWarm.15 mph49%29.99 "HgN/A
2:00 pm77 °FSunny.16 mph49%30.01 "Hg12 mi
1:00 pm75 °FMild.12 mph52%30.03 "HgN/A
12:00 pm74 °FMild.8 mph53%30.04 "HgN/A
11:00 am71 °FSunny.2 mph57%30.06 "Hg12 mi
10:00 am67 °FMild.5 mph62%30.09 "HgN/A
9:00 am63 °FMild.6 mph68%30.11 "HgN/A
8:00 am57 °FSunny.1 mph83%30.14 "Hg4 mi
7:00 am56 °FCool.5 mph86%30.14 "HgN/A
6:00 am56 °FCool.3 mph88%30.13 "HgN/A
5:00 am57 °FFog.6 mph85%30.11 "Hg5 mi
4:00 am57 °FCool.3 mph84%30.10 "HgN/A
3:00 am58 °FCool.3 mph85%30.11 "HgN/A
2:00 am59 °FClear.6 mph81%30.10 "Hg5 mi
1:00 am60 °FCool.3 mph82%30.10 "HgN/A
12:00 am62 °FCool.5 mph77%30.08 "HgN/A
Weather by CustomWeather, © 2020

See weather overview